This demonstration page uses our WeatherBlox Daily Observations layout. Learn more.

Left ArrowRight Arrow

Hourly Observations for January 29, 2020

Temp ( °F °C ) Dew Point ( °F °C ) Humidity (%) Winds ( mph kmh ) Pressure ( in mb ) Visibility ( mi km ) Precip ( " mm )
12:53 am 00:53 Cloudy 33 0.6 30 -1.1 89 89 NE 3 6 30.15 1021 9 14 0.00 0.00
1:53 am 01:53 Cloudy 33 0.6 29 -1.7 85 85 Calm 30.14 1021 8 13 0.00 0.00
2:53 am 02:53 Cloudy 33 0.6 29 -1.7 85 85 Calm 30.14 1021 8 13 0.00 0.00
3:53 am 03:53 Cloudy 33 0.6 30 -1.1 89 89 Calm 30.14 1021 8 13 0.00 0.00
4:53 am 04:53 Cloudy 32 0 29 -1.7 88 88 Calm 30.15 1021 8 13 0.00 0.00
5:53 am 05:53 Cloudy 32 0 29 -1.7 88 88 Calm 30.16 1022 9 14 0.00 0.00
6:53 am 06:53 Cloudy 33 0.6 28 -2.2 82 82 Calm 30.17 1022 10 16 0.00 0.00
7:53 am 07:53 Cloudy 33 0.6 27 -2.8 78 78 NNE 3 6 30.19 1022 10 16 0.00 0.00
8:53 am 08:53 Cloudy 33 0.6 26 -3.3 75 75 NE 6 9 30.20 1023 10 16 0.00 0.00
9:53 am 09:53 Cloudy 34 1.1 25 -3.9 70 70 ENE 7 11 30.20 1023 10 16 0.00 0.00
10:53 am 10:53 Cloudy 34 1.1 25 -3.9 70 70 E 6 9 30.21 1023 10 16 0.00 0.00
11:53 am 11:53 Cloudy 34 1.1 26 -3.3 73 73 E 7 11 30.20 1023 10 16 0.00 0.00
12:53 pm 12:53 Cloudy 34 1.1 27 -2.8 76 76 E 7 11 30.17 1022 10 16 0.00 0.00
1:53 pm 13:53 Cloudy 34 1.1 26 -3.3 73 73 E 7 11 30.15 1021 10 16 0.00 0.00
2:53 pm 14:53 Cloudy 35 1.7 24 -4.4 64 64 ENE 8 13 30.14 1021 10 16 0.00 0.00
3:53 pm 15:53 Cloudy 35 1.7 24 -4.4 64 64 ENE 8 13 30.15 1021 10 16 0.00 0.00
4:25 pm 16:25 Cloudy 35 1.7 24 -4.4 64 64 E 8 13 30.17 1022 10 16 0.00 0.00
4:53 pm 16:53 Cloudy 35 1.7 24 -4.4 64 64 ENE 6 9 30.16 1021 10 16 0.00 0.00
5:05 pm 17:05 Cloudy 34 1.1 24 -4.4 67 67 ENE 5 7 30.18 1022 10 16 0.00 0.00
5:53 pm 17:53 Cloudy 34 1.1 25 -3.9 70 70 ENE 3 6 30.18 1022 10 16 0.00 0.00
6:53 pm 18:53 Cloudy 34 1.1 25 -3.9 70 70 NE 6 9 30.19 1022 10 16 0.00 0.00
7:53 pm 19:53 Cloudy 34 1.1 25 -3.9 70 70 NE 5 7 30.19 1022 10 16 0.00 0.00
8:53 pm 20:53 Cloudy 34 1.1 25 -3.9 70 70 NE 3 6 30.19 1023 10 16 0.00 0.00
9:53 pm 21:53 Cloudy 34 1.1 25 -3.9 70 70 NNE 3 6 30.20 1023 10 16 0.00 0.00
10:53 pm 22:53 Cloudy 33 0.6 26 -3.3 75 75 Calm 30.20 1023 10 16 0.00 0.00
11:53 pm 23:53 Cloudy 33 0.6 26 -3.3 75 75 NE 5 7 30.19 1022 10 16 0.00 0.00

Powered by AerisWeather